Tracking 30101 objects as of 14-Dec-2024
HD Live streaming from Space Station
objects crossing your sky now

STARLINK-31003

Track STARLINK-31003 now!
10-day predictions
STARLINK-31003 is classified as:


NORAD ID: 58520
Int'l Code: 2023-191N
Perigee: 565.5 km
Apogee: 567.0 km
Inclination: 43.0 °
Period: 95.8 minutes
Semi major axis: 6937 km
RCS: Unknown
Launch date: December 7, 2023
Source: United States (US)
Launch site: AIR FORCE EASTERN TEST RANGE (AFETR)
Your satellite tracking list
Your tracking list is empty




NASA's NSSDC Master Catalog

Two Line Element Set (TLE):
1 58520U 23191N   24348.13015527  .00001182  00000-0  10253-3 0  9997
2 58520  43.0045  39.7529 0001086 284.7523  75.3199 15.02537987 57541
Source of the keplerian elements: AFSPC